Location: Croydon
(51.3762°N, 0.0982°W)
Time: 02:21:16
(UTC+01:00)

VELOX 1 - Pass Details

Date: 25 April 2019
Orbit: 629 x 644 km, 98.2° (Epoch: 21 May)

Event Time Altitude Azimuth Distance (km) Brightness Sun altitude
Exits shadow 03:34:54 12° 280° (W) 1,907 ? -17.2°
Drops below altitude 10° 03:36:03 10° 296° (WNW) 2,018 ? -17.1°
Sets 03:39:45 0° 328° (NNW) 2,933 ? -16.7°
